Location: Unspecified
(52.3330°N, 0.0000°E)
Time: 13:06:02
(UTC+00:00)

FREGAT DEB - Visible Passes

Search period start: 04 April 2026 00:00
Search period end: 14 April 2026 00:00
Orbit: 424 x 3168 km, 51.5° (Epoch: 29 March)

Date Brightness Start Highest point End Pass type
(mag) Time Alt. Az. Time Alt. Az. Time Alt. Az.
4 Apr ? 00:56:31 44° W 00:59:50 86° S 01:13:35 10° E visible
4 Apr ? 02:59:44 10° WNW 03:09:14 74° SSW 03:25:31 10° ESE visible
4 Apr ? 21:21:37 15° E 21:21:37 15° E 21:23:34 10° ENE visible
4 Apr ? 23:24:07 70° SE 23:24:07 70° SE 23:34:56 10° ENE visible
5 Apr ? 01:26:38 24° W 01:32:25 85° S 01:46:56 10° E visible
5 Apr ? 03:31:52 10° WNW 03:41:47 63° SSW 03:58:09 10° SE visible
5 Apr ? 21:51:33 28° E 21:51:33 28° E 21:56:45 10° ENE visible
5 Apr ? 23:54:02 57° WSW 23:55:54 82° SSE 00:08:07 10° E visible
6 Apr ? 01:56:30 10° W 02:04:58 80° SSW 02:20:09 10° ESE visible
6 Apr ? 04:04:03 10° WNW 04:14:13 51° SW 04:30:12 10° SSE visible
6 Apr ? 22:21:06 54° ESE 22:21:06 54° ESE 22:29:45 10° ENE visible
7 Apr ? 00:23:31 26° W 00:28:19 86° S 00:41:23 10° E visible
7 Apr ? 02:28:31 10° WNW 02:37:29 70° SSW 02:53:04 10° SE visible
7 Apr ? 04:36:24 10° WNW 04:46:30 39° SW 05:01:26 10° SSE visible
7 Apr ? 20:41:08 10° S 20:47:07 24° ESE 20:51:39 10° ENE visible
7 Apr ? 22:49:17 37° WSW 22:52:06 74° SSE 23:02:46 10° E visible
8 Apr ? 00:53:14 10° W 01:00:46 84° S 01:14:37 10° ESE visible
8 Apr ? 03:00:34 10° WNW 03:09:54 58° SSW 03:25:31 10° SE visible
8 Apr ? 21:12:00 10° SSW 21:16:43 43° SE 21:24:39 10° ENE visible
8 Apr ? 23:18:07 10° WSW 23:24:18 84° S 23:35:51 10° E visible
9 Apr ? 01:25:10 10° W 01:33:11 77° SSW 01:47:41 10° ESE visible
9 Apr ? 03:32:41 10° WNW 03:42:13 46° SW 03:57:18 10° SSE visible
9 Apr ? 19:39:29 10° SSE 19:42:24 16° ESE 19:46:10 10° E visible
9 Apr ? 21:43:20 10° SW 21:48:27 61° SSE 21:57:33 10° ENE visible
9 Apr ? 23:49:58 10° W 23:56:37 86° S 00:09:00 10° E visible
10 Apr ? 01:57:06 10° WNW 02:05:34 66° SSW 02:20:24 10° SE visible
10 Apr ? 04:05:01 10° WNW 04:14:23 35° SW 04:28:14 10° S visible
10 Apr ? 20:09:33 10° S 20:13:31 28° SE 20:19:33 10° ENE visible
10 Apr ? 22:14:57 10° WSW 22:20:24 76° SSE 22:30:26 10° E visible
11 Apr ? 00:21:50 10° W 00:28:57 82° S 00:42:06 10° ESE visible
11 Apr ? 02:29:05 10° WNW 02:37:51 54° SSW 02:52:37 10° SE visible
11 Apr ? 04:37:48 10° W 04:46:21 25° SW 04:57:59 10° S visible
11 Apr ? 20:40:29 10° SW 20:44:56 45° SE 20:52:25 10° ENE visible
11 Apr ? 22:46:41 10° W 22:52:33 84° S 23:03:25 10° E visible
12 Apr ? 00:53:41 10° WNW 01:01:15 73° SSW 01:15:00 10° ESE visible
12 Apr ? 03:01:10 10° WNW 03:10:04 42° SW 03:24:08 10° SSE visible
12 Apr ? 21:11:50 10° SW 21:16:38 64° SSE 21:25:10 10° ENE visible
12 Apr ? 23:18:29 10° W 23:24:45 85° S 23:36:26 10° E visible
13 Apr ? 01:25:32 10° WNW 01:33:30 61° SSW 01:47:31 10° SE visible
13 Apr ? 03:33:32 10° WNW 03:42:07 31° SW 03:54:43 10° S visible
13 Apr ? 19:37:48 10° SSW 19:41:35 30° SE 19:47:19 10° ENE visible
13 Apr ? 21:43:24 10° WSW 21:48:34 78° SSE 21:57:58 10° E visible
